Location: Concepci�n
(32.5333°N, 117.1167°W)
Time: 19:56:53
(UTC+00:00)

Meteor 2-10 Rocket - Pass Details

Date: 08 May 2021
Orbit: 734 x 885 km, 81.2° (Epoch: 18 June)

Event Time Altitude Azimuth Distance (km) Brightness Sun altitude
Rises 11:59:02 0° 351° (N) 3,474 7.2 -11.5°
Reaches altitude 10° 12:01:31 10° 351° (N) 2,521 6.4 -11.1°
Maximum altitude 12:07:16 86° 264° (W) 857 3.7 -10.0°
Drops below altitude 10° 12:12:46 10° 175° (S) 2,420 5.9 -9.0°
Sets 12:15:07 0° 175° (S) 3,326 6.6 -8.5°
